SWA3511 KMAF-KDAL

Flight info

Callsign SWA3511
Flight time N/A
Altitude 37000
Route BGTOE BACHR4
Aircraft B737/M-SDE2E3FGHIRWXY/LB1

Departure

Time 2026-04-14 00:40
Airport Midland International Air and Space Port (KMAF)

Arrival

Time N/A
Airport Dallas Love Field (KDAL)
Time Latitude Longitude Altitude Speed Heading
2026-04-14 00:22 31.93701 -102.20712 2860 ft 0 kts 268°
2026-04-14 00:30 31.93701 -102.20694 2859 ft 2 kts 268°
2026-04-14 00:31 31.93702 -102.20676 2859 ft 2 kts 268°
2026-04-14 00:31 31.93702 -102.20659 2859 ft 2 kts 268°
2026-04-14 00:31 31.93703 -102.20641 2859 ft 2 kts 268°
2026-04-14 00:31 31.93703 -102.20629 2859 ft 0 kts 268°
2026-04-14 00:34 31.93704 -102.20633 2859 ft 1 kts 296°
2026-04-14 00:34 31.93724 -102.20623 2859 ft 5 kts 33°
2026-04-14 00:34 31.93783 -102.20576 2858 ft 11 kts 34°
2026-04-14 00:35 31.93851 -102.20541 2859 ft 10 kts
2026-04-14 00:35 31.93920 -102.20548 2859 ft 9 kts 355°
2026-04-14 00:35 31.93985 -102.20554 2859 ft 10 kts 355°
2026-04-14 00:35 31.94106 -102.20566 2861 ft 21 kts 355°
2026-04-14 00:36 31.94251 -102.20587 2862 ft 20 kts 352°
2026-04-14 00:36 31.94386 -102.20607 2862 ft 19 kts 353°
2026-04-14 00:36 31.94530 -102.20624 2863 ft 24 kts 356°
2026-04-14 00:36 31.94697 -102.20636 2866 ft 23 kts 355°
2026-04-14 00:37 31.94853 -102.20653 2868 ft 21 kts 355°
2026-04-14 00:37 31.94999 -102.20669 2868 ft 20 kts 354°
2026-04-14 00:37 31.95141 -102.20686 2869 ft 19 kts 354°
2026-04-14 00:37 31.95275 -102.20689 2870 ft 18 kts
2026-04-14 00:38 31.95401 -102.20693 2869 ft 18 kts 356°
2026-04-14 00:38 31.95544 -102.20708 2868 ft 22 kts 355°
2026-04-14 00:38 31.95699 -102.20722 2868 ft 22 kts 355°
2026-04-14 00:38 31.95845 -102.20736 2868 ft 17 kts 355°
2026-04-14 00:39 31.95917 -102.20687 2867 ft 11 kts 83°
2026-04-14 00:39 31.95921 -102.20596 2866 ft 10 kts 85°
2026-04-14 00:39 31.95902 -102.20541 2866 ft 5 kts 176°
2026-04-14 00:39 31.95826 -102.20536 2867 ft 31 kts 176°
2026-04-14 00:40 31.95320 -102.20485 2871 ft 111 kts 176°
2026-04-14 00:40 31.94342 -102.20384 3023 ft 162 kts 174°
2026-04-14 00:40 31.93133 -102.20274 3615 ft 185 kts 176°
2026-04-14 00:40 31.91798 -102.20187 4339 ft 200 kts 173°
2026-04-14 00:41 31.90511 -102.19430 4947 ft 223 kts 136°
2026-04-14 00:41 31.89870 -102.17714 5544 ft 248 kts 99°
2026-04-14 00:41 31.90255 -102.15684 6185 ft 271 kts 62°
2026-04-14 00:41 31.91322 -102.13868 7087 ft 274 kts 58°
2026-04-14 00:42 31.92228 -102.11880 7956 ft 279 kts 69°
2026-04-14 00:42 31.92794 -102.09708 8837 ft 284 kts 78°
2026-04-14 00:42 31.93170 -102.07395 9505 ft 300 kts 82°
2026-04-14 00:42 31.93496 -102.04897 10276 ft 312 kts 83°
2026-04-14 00:43 31.93816 -102.02328 10955 ft 327 kts 83°
2026-04-14 00:43 31.94147 -101.99641 11587 ft 343 kts 83°
2026-04-14 00:43 31.94497 -101.96793 12214 ft 358 kts 82°
2026-04-14 00:43 31.94862 -101.93828 12784 ft 375 kts 82°
2026-04-14 00:44 31.95235 -101.90784 13600 ft 382 kts 83°
2026-04-14 00:44 31.95621 -101.87640 14360 ft 392 kts 83°
2026-04-14 00:44 31.96011 -101.84447 15115 ft 401 kts 83°
2026-04-14 00:44 31.96413 -101.81145 15869 ft 410 kts 83°
2026-04-14 00:45 31.96821 -101.77791 16603 ft 418 kts 83°
2026-04-14 00:45 31.97234 -101.74386 17318 ft 426 kts 83°
2026-04-14 00:45 31.97656 -101.70907 18055 ft 433 kts 83°
2026-04-14 00:45 31.98082 -101.67387 18856 ft 437 kts 83°
2026-04-14 00:46 31.98512 -101.63827 19619 ft 442 kts 83°
2026-04-14 00:46 31.98943 -101.60266 20360 ft 446 kts 83°
2026-04-14 00:46 31.99387 -101.56592 21098 ft 451 kts 83°
2026-04-14 00:46 31.99832 -101.52900 21779 ft 455 kts 83°
2026-04-14 00:47 32.00279 -101.49183 22451 ft 460 kts 83°
2026-04-14 00:47 32.00729 -101.45418 23139 ft 463 kts 84°
2026-04-14 00:47 32.01191 -101.41543 23775 ft 469 kts 84°
2026-04-14 00:47 32.01648 -101.37695 24400 ft 474 kts 84°
2026-04-14 00:48 32.02116 -101.33752 25042 ft 478 kts 84°
2026-04-14 00:48 32.02581 -101.29818 25650 ft 481 kts 84°
2026-04-14 00:48 32.03051 -101.25827 26133 ft 488 kts 84°
2026-04-14 00:48 32.03522 -101.21809 26717 ft 491 kts 84°
2026-04-14 00:49 32.03997 -101.17763 27323 ft 494 kts 84°
2026-04-14 00:49 32.04480 -101.13625 27854 ft 498 kts 84°
2026-04-14 00:49 32.04958 -101.09522 28332 ft 503 kts 84°
2026-04-14 00:49 32.05431 -101.05443 28879 ft 505 kts 84°
2026-04-14 00:50 32.05913 -101.01285 29358 ft 509 kts 84°
2026-04-14 00:50 32.06388 -100.97166 29839 ft 513 kts 85°
2026-04-14 00:50 32.06870 -100.92976 30231 ft 519 kts 85°
2026-04-14 00:50 32.07350 -100.88794 30904 ft 518 kts 85°
2026-04-14 00:51 32.07835 -100.84637 31337 ft 502 kts 84°
2026-04-14 00:51 32.08318 -100.80615 31326 ft 483 kts 84°
2026-04-14 00:51 32.08794 -100.76832 31625 ft 460 kts 84°
2026-04-14 00:51 32.09266 -100.73174 31484 ft 447 kts 84°
2026-04-14 00:52 32.09731 -100.69611 31247 ft 439 kts 84°
2026-04-14 00:52 32.10182 -100.66138 31150 ft 426 kts 84°
2026-04-14 00:52 32.10628 -100.62639 30623 ft 424 kts 84°
2026-04-14 00:52 32.11039 -100.59255 30294 ft 411 kts 86°
2026-04-14 00:53 32.11359 -100.56094 30824 ft 381 kts 86°
2026-04-14 00:53 32.11664 -100.52949 29967 ft 391 kts 87°
2026-04-14 00:53 32.11906 -100.49844 29928 ft 374 kts 88°
2026-04-14 00:53 32.12109 -100.46874 30076 ft 348 kts 89°
2026-04-14 00:54 32.12294 -100.44210 30517 ft 319 kts 90°
2026-04-14 00:54 32.12487 -100.41479 28601 ft 374 kts 88°
2026-04-14 00:54 32.12689 -100.38307 26685 ft 419 kts 89°
2026-04-14 00:54 32.12866 -100.34774 24688 ft 458 kts 89°
2026-04-14 00:55 32.13080 -100.30891 21530 ft 515 kts 88°
2026-04-14 00:55 32.13336 -100.26611 19273 ft 541 kts 88°
2026-04-14 00:55 32.13615 -100.22285 19114 ft 518 kts 87°
2026-04-14 00:55 32.13895 -100.18166 18621 ft 506 kts 87°
2026-04-14 00:56 32.14166 -100.14138 14730 ft 567 kts 86°
2026-04-14 00:56 32.14398 -100.09538 11163 ft 581 kts 89°
2026-04-14 00:56 32.14544 -100.04890 9335 ft 563 kts 90°
2026-04-14 00:56 32.14663 -100.00644 10590 ft 497 kts 90°
2026-04-14 00:57 32.14787 -99.96687 10269 ft 474 kts 89°
2026-04-14 00:57 32.15136 -99.92911 10095 ft 449 kts 82°
2026-04-14 00:57 32.15682 -99.89540 10265 ft 418 kts 80°
2026-04-14 00:57 32.16136 -99.86232 10109 ft 394 kts 84°
2026-04-14 00:58 32.16436 -99.83276 10127 ft 374 kts 85°
2026-04-14 00:58 32.16538 -99.82269 9762 ft 377 kts 85°